owner,sensor,date,latitude,longitude,vertical_datum,sea_water_practical_salinity,qcFlag 
DISL,ioos:station:DISL:MHPA:1,2009-06-01T00:00:00Z,30.6671,-87.9365,3.823,0.06,1111122 
DISL,ioos:station:DISL:MHPA:1,2009-06-01T00:30:00Z,30.6671,-87.9365,3.756,0.06,1111122 
DISL,ioos:station:DISL:MHPA:1,2009-06-01T01:00:00Z,30.6671,-87.9365,3.723,0.06,1111122 
DISL,ioos:station:DISL:MHPA:1,2009-06-01T01:30:00Z,30.6671,-87.9365,3.706,0.06,1111122 
DISL,ioos:station:DISL:MHPA:1,2009-06-01T02:00:00Z,30.6671,-87.9365,3.68,0.06,1111122 
DISL,ioos:station:DISL:MHPA:1,2009-06-01T02:30:00Z,30.6671,-87.9365,3.66,0.06,1111122 
DISL,ioos:station:DISL:MHPA:1,2009-06-01T03:00:00Z,30.6671,-87.9365,3.641,0.06,1111122 
DISL,ioos:station:DISL:MHPA:1,2009-06-01T03:30:00Z,30.6671,-87.9365,3.602,0.06,1111122 
DISL,ioos:station:DISL:MHPA:1,2009-06-01T04:00:00Z,30.6671,-87.9365,3.568,0.06,1111122 
DISL,ioos:station:DISL:MHPA:1,2009-06-01T04:30:00Z,30.6671,-87.9365,3.536,0.06,1111122 
DISL,ioos:station:DISL:MHPA:1,2009-06-01T05:00:00Z,30.6671,-87.9365,3.48,0.06,1111122 
DISL,ioos:station:DISL:MHPA:1,2009-06-01T05:30:00Z,30.6671,-87.9365,3.405,0.06,1111122 
DISL,ioos:station:DISL:MHPA:1,2009-06-01T06:00:00Z,30.6671,-87.9365,3.351,0.06,1111122 
DISL,ioos:station:DISL:MHPA:1,2009-06-01T06:30:00Z,30.6671,-87.9365,3.322,0.06,1111122 
DISL,ioos:station:DISL:MHPA:1,2009-06-01T07:00:00Z,30.6671,-87.9365,3.324,0.06,1111122 
DISL,ioos:station:DISL:MHPA:1,2009-06-01T07:30:00Z,30.6671,-87.9365,3.308,0.06,1111122 
DISL,ioos:station:DISL:MHPA:1,2009-06-01T08:00:00Z,30.6671,-87.9365,3.326,0.06,1111122 
DISL,ioos:station:DISL:MHPA:1,2009-06-01T08:30:00Z,30.6671,-87.9365,3.379,0.06,1111122 
DISL,ioos:station:DISL:MHPA:1,2009-06-01T09:00:00Z,30.6671,-87.9365,3.416,0.06,1111122 
DISL,ioos:station:DISL:MHPA:1,2009-06-01T09:30:00Z,30.6671,-87.9365,3.459,0.06,1111122 
DISL,ioos:station:DISL:MHPA:1,2009-06-01T10:00:00Z,30.6671,-87.9365,3.456,0.06,1111122 
DISL,ioos:station:DISL:MHPA:1,2009-06-01T10:30:00Z,30.6671,-87.9365,3.482,0.06,1111122 
DISL,ioos:station:DISL:MHPA:1,2009-06-01T11:00:00Z,30.6671,-87.9365,3.538,0.06,1111122 
DISL,ioos:station:DISL:MHPA:1,2009-06-01T11:30:00Z,30.6671,-87.9365,3.601,0.06,1111122 
DISL,ioos:station:DISL:MHPA:1,2009-06-01T12:00:00Z,30.6671,-87.9365,3.607,0.06,1111122 
DISL,ioos:station:DISL:MHPA:1,2009-06-01T12:30:00Z,30.6671,-87.9365,3.586,0.06,1111122 
DISL,ioos:station:DISL:MHPA:1,2009-06-01T13:00:00Z,30.6671,-87.9365,3.617,0.06,1111122 
DISL,ioos:station:DISL:MHPA:1,2009-06-01T13:30:00Z,30.6671,-87.9365,3.62,0.06,1111122 
DISL,ioos:station:DISL:MHPA:1,2009-06-01T14:00:00Z,30.6671,-87.9365,3.638,0.06,1111122 
DISL,ioos:station:DISL:MHPA:1,2009-06-01T14:30:00Z,30.6671,-87.9365,3.649,0.06,1111122 
DISL,ioos:station:DISL:MHPA:1,2009-06-01T15:00:00Z,30.6671,-87.9365,3.652,0.06,1111122 
DISL,ioos:station:DISL:MHPA:1,2009-06-01T15:30:00Z,30.6671,-87.9365,3.619,0.06,1111122 
DISL,ioos:station:DISL:MHPA:1,2009-06-01T16:00:00Z,30.6671,-87.9365,3.624,0.06,1111122 
DISL,ioos:station:DISL:MHPA:1,2009-06-01T16:30:00Z,30.6671,-87.9365,3.608,0.06,1111122 
DISL,ioos:station:DISL:MHPA:1,2009-06-01T17:00:00Z,30.6671,-87.9365,3.585,0.06,1111122 
DISL,ioos:station:DISL:MHPA:1,2009-06-01T17:30:00Z,30.6671,-87.9365,3.519,0.06,1111122 
DISL,ioos:station:DISL:MHPA:1,2009-06-01T18:00:00Z,30.6671,-87.9365,3.434,0.06,1111122 
DISL,ioos:station:DISL:MHPA:1,2009-06-01T18:30:00Z,30.6671,-87.9365,3.375,0.06,1111122 
DISL,ioos:station:DISL:MHPA:1,2009-06-01T19:00:00Z,30.6671,-87.9365,3.311,0.06,1111122 
DISL,ioos:station:DISL:MHPA:1,2009-06-01T19:30:00Z,30.6671,-87.9365,3.276,0.06,1111122 
DISL,ioos:station:DISL:MHPA:1,2009-06-01T20:00:00Z,30.6671,-87.9365,3.277,0.06,1111122 
DISL,ioos:station:DISL:MHPA:1,2009-06-01T20:30:00Z,30.6671,-87.9365,3.329,0.06,1111122 
DISL,ioos:station:DISL:MHPA:1,2009-06-01T21:00:00Z,30.6671,-87.9365,3.351,0.06,1111122 
DISL,ioos:station:DISL:MHPA:1,2009-06-01T21:30:00Z,30.6671,-87.9365,3.413,0.06,1111122 
DISL,ioos:station:DISL:MHPA:1,2009-06-01T22:00:00Z,30.6671,-87.9365,3.419,0.06,1111122 
DISL,ioos:station:DISL:MHPA:1,2009-06-01T22:30:00Z,30.6671,-87.9365,3.393,0.06,1111122 
DISL,ioos:station:DISL:MHPA:1,2009-06-01T23:00:00Z,30.6671,-87.9365,3.35,0.06,1111122 
DISL,ioos:station:DISL:MHPA:1,2009-06-01T23:30:00Z,30.6671,-87.9365,3.351,0.06,1111122 
DISL,ioos:station:DISL:MHPA:1,2009-06-02T00:00:00Z,30.6671,-87.9365,3.352,0.06,1111122 
DISL,ioos:station:DISL:MHPA:1,2009-06-02T00:30:00Z,30.6671,-87.9365,3.298,0.06,1111122 
DISL,ioos:station:DISL:MHPA:1,2009-06-02T01:00:00Z,30.6671,-87.9365,3.253,0.06,1111122 
DISL,ioos:station:DISL:MHPA:1,2009-06-02T01:30:00Z,30.6671,-87.9365,3.254,0.06,1111122 
DISL,ioos:station:DISL:MHPA:1,2009-06-02T02:00:00Z,30.6671,-87.9365,3.275,0.06,1111122 
DISL,ioos:station:DISL:MHPA:1,2009-06-02T02:30:00Z,30.6671,-87.9365,3.291,0.06,1111122 
DISL,ioos:station:DISL:MHPA:1,2009-06-02T03:00:00Z,30.6671,-87.9365,3.355,0.06,1111122 
DISL,ioos:station:DISL:MHPA:1,2009-06-02T03:30:00Z,30.6671,-87.9365,3.392,0.06,1111122 
DISL,ioos:station:DISL:MHPA:1,2009-06-02T04:00:00Z,30.6671,-87.9365,3.381,0.06,1111122 
DISL,ioos:station:DISL:MHPA:1,2009-06-02T04:30:00Z,30.6671,-87.9365,3.404,0.06,1111122 
DISL,ioos:station:DISL:MHPA:1,2009-06-02T05:00:00Z,30.6671,-87.9365,3.382,0.06,1111122 
DISL,ioos:station:DISL:MHPA:1,2009-06-02T05:30:00Z,30.6671,-87.9365,3.416,0.06,1111122 
DISL,ioos:station:DISL:MHPA:1,2009-06-02T06:00:00Z,30.6671,-87.9365,3.416,0.06,1111122 
DISL,ioos:station:DISL:MHPA:1,2009-06-02T06:30:00Z,30.6671,-87.9365,3.472,0.06,1111122 
DISL,ioos:station:DISL:MHPA:1,2009-06-02T07:00:00Z,30.6671,-87.9365,3.495,0.06,1111122 
DISL,ioos:station:DISL:MHPA:1,2009-06-02T07:30:00Z,30.6671,-87.9365,3.51,0.06,1111122 
DISL,ioos:station:DISL:MHPA:1,2009-06-02T08:00:00Z,30.6671,-87.9365,3.631,0.06,1111122 
DISL,ioos:station:DISL:MHPA:1,2009-06-02T08:30:00Z,30.6671,-87.9365,3.718,0.06,1111122 
DISL,ioos:station:DISL:MHPA:1,2009-06-02T09:00:00Z,30.6671,-87.9365,3.837,0.06,1111122 
DISL,ioos:station:DISL:MHPA:1,2009-06-02T09:30:00Z,30.6671,-87.9365,3.881,0.06,1111122 
DISL,ioos:station:DISL:MHPA:1,2009-06-02T10:00:00Z,30.6671,-87.9365,3.937,0.06,1111122 
DISL,ioos:station:DISL:MHPA:1,2009-06-02T10:30:00Z,30.6671,-87.9365,4.011,0.06,1111122 
DISL,ioos:station:DISL:MHPA:1,2009-06-02T11:00:00Z,30.6671,-87.9365,4.035,0.06,1111122 
DISL,ioos:station:DISL:MHPA:1,2009-06-02T11:30:00Z,30.6671,-87.9365,4.067,0.06,1111122 
DISL,ioos:station:DISL:MHPA:1,2009-06-02T12:00:00Z,30.6671,-87.9365,4.074,0.06,1111122 
DISL,ioos:station:DISL:MHPA:1,2009-06-02T12:30:00Z,30.6671,-87.9365,4.126,0.06,1111122 
DISL,ioos:station:DISL:MHPA:1,2009-06-02T13:00:00Z,30.6671,-87.9365,4.026,0.06,1111122 
DISL,ioos:station:DISL:MHPA:1,2009-06-02T13:30:00Z,30.6671,-87.9365,4.012,0.06,1111122 
DISL,ioos:station:DISL:MHPA:1,2009-06-02T14:00:00Z,30.6671,-87.9365,3.975,0.06,1111122 
DISL,ioos:station:DISL:MHPA:1,2009-06-02T14:30:00Z,30.6671,-87.9365,3.94,0.06,1111122 
DISL,ioos:station:DISL:MHPA:1,2009-06-02T15:00:00Z,30.6671,-87.9365,3.918,0.06,1111122 
DISL,ioos:station:DISL:MHPA:1,2009-06-02T15:30:00Z,30.6671,-87.9365,3.838,0.06,1111122 
DISL,ioos:station:DISL:MHPA:1,2009-06-02T16:00:00Z,30.6671,-87.9365,3.781,0.06,1111122 
DISL,ioos:station:DISL:MHPA:1,2009-06-02T16:30:00Z,30.6671,-87.9365,3.776,0.06,1111122 
DISL,ioos:station:DISL:MHPA:1,2009-06-02T17:00:00Z,30.6671,-87.9365,3.714,0.06,1111122 
DISL,ioos:station:DISL:MHPA:1,2009-06-02T17:30:00Z,30.6671,-87.9365,3.666,0.06,1111122 
DISL,ioos:station:DISL:MHPA:1,2009-06-02T18:00:00Z,30.6671,-87.9365,3.638,0.06,1111122 
DISL,ioos:station:DISL:MHPA:1,2009-06-02T18:30:00Z,30.6671,-87.9365,3.652,0.06,1111122 
DISL,ioos:station:DISL:MHPA:1,2009-06-02T19:00:00Z,30.6671,-87.9365,3.638,0.06,1111122 
DISL,ioos:station:DISL:MHPA:1,2009-06-02T19:30:00Z,30.6671,-87.9365,3.593,0.06,1111122 
DISL,ioos:station:DISL:MHPA:1,2009-06-02T20:00:00Z,30.6671,-87.9365,3.518,0.06,1111122 
DISL,ioos:station:DISL:MHPA:1,2009-06-02T20:30:00Z,30.6671,-87.9365,3.498,0.06,1111122 
DISL,ioos:station:DISL:MHPA:1,2009-06-02T21:00:00Z,30.6671,-87.9365,3.485,0.06,1111122 
DISL,ioos:station:DISL:MHPA:1,2009-06-02T21:30:00Z,30.6671,-87.9365,3.45,0.06,1111122 
DISL,ioos:station:DISL:MHPA:1,2009-06-02T22:00:00Z,30.6671,-87.9365,3.397,0.06,1111122 
DISL,ioos:station:DISL:MHPA:1,2009-06-02T22:30:00Z,30.6671,-87.9365,3.317,0.06,1111122 
DISL,ioos:station:DISL:MHPA:1,2009-06-02T23:00:00Z,30.6671,-87.9365,3.255,0.06,1111122 
DISL,ioos:station:DISL:MHPA:1,2009-06-02T23:30:00Z,30.6671,-87.9365,3.201,0.06,1111122 
DISL,ioos:station:DISL:MHPA:1,2009-06-03T00:00:00Z,30.6671,-87.9365,3.143,0.06,1111122 
DISL,ioos:station:DISL:MHPA:1,2009-06-03T00:30:00Z,30.6671,-87.9365,3.121,0.06,1111122 
DISL,ioos:station:DISL:MHPA:1,2009-06-03T01:00:00Z,30.6671,-87.9365,3.114,0.06,1111122 
DISL,ioos:station:DISL:MHPA:1,2009-06-03T01:30:00Z,30.6671,-87.9365,3.111,0.06,1111122 
DISL,ioos:station:DISL:MHPA:1,2009-06-03T02:00:00Z,30.6671,-87.9365,3.159,0.06,1111122 
DISL,ioos:station:DISL:MHPA:1,2009-06-03T02:30:00Z,30.6671,-87.9365,3.18,0.06,1111122 
DISL,ioos:station:DISL:MHPA:1,2009-06-03T03:00:00Z,30.6671,-87.9365,3.187,0.06,1111122 
DISL,ioos:station:DISL:MHPA:1,2009-06-03T03:30:00Z,30.6671,-87.9365,3.301,0.06,1111122 
DISL,ioos:station:DISL:MHPA:1,2009-06-03T04:00:00Z,30.6671,-87.9365,3.419,0.06,1111122 
DISL,ioos:station:DISL:MHPA:1,2009-06-03T04:30:00Z,30.6671,-87.9365,3.458,0.06,1111122 
DISL,ioos:station:DISL:MHPA:1,2009-06-03T05:00:00Z,30.6671,-87.9365,3.516,0.06,1111122 
DISL,ioos:station:DISL:MHPA:1,2009-06-03T05:30:00Z,30.6671,-87.9365,3.55,0.06,1111122 
DISL,ioos:station:DISL:MHPA:1,2009-06-03T06:00:00Z,30.6671,-87.9365,3.735,0.06,1111122 
DISL,ioos:station:DISL:MHPA:1,2009-06-03T06:30:00Z,30.6671,-87.9365,3.765,0.07,1111122 
DISL,ioos:station:DISL:MHPA:1,2009-06-03T07:00:00Z,30.6671,-87.9365,3.923,0.07,1111122 
DISL,ioos:station:DISL:MHPA:1,2009-06-03T07:30:00Z,30.6671,-87.9365,4.014,0.07,1111122 
DISL,ioos:station:DISL:MHPA:1,2009-06-03T08:00:00Z,30.6671,-87.9365,4.017,0.07,1111122 
DISL,ioos:station:DISL:MHPA:1,2009-06-03T08:30:00Z,30.6671,-87.9365,4.077,0.06,1111122 
DISL,ioos:station:DISL:MHPA:1,2009-06-03T09:00:00Z,30.6671,-87.9365,4.116,0.06,1111122 
DISL,ioos:station:DISL:MHPA:1,2009-06-03T09:30:00Z,30.6671,-87.9365,4.28,0.06,1111122 
DISL,ioos:station:DISL:MHPA:1,2009-06-03T10:00:00Z,30.6671,-87.9365,4.145,0.06,1111122 
DISL,ioos:station:DISL:MHPA:1,2009-06-03T10:30:00Z,30.6671,-87.9365,4.145,0.06,1111122 
DISL,ioos:station:DISL:MHPA:1,2009-06-03T11:00:00Z,30.6671,-87.9365,4.282,0.06,1111122 
DISL,ioos:station:DISL:MHPA:1,2009-06-03T11:30:00Z,30.6671,-87.9365,4.237,0.06,1111122 
DISL,ioos:station:DISL:MHPA:1,2009-06-03T12:00:00Z,30.6671,-87.9365,4.222,0.06,1111122 
DISL,ioos:station:DISL:MHPA:1,2009-06-03T12:30:00Z,30.6671,-87.9365,4.2,0.06,1111122 
DISL,ioos:station:DISL:MHPA:1,2009-06-03T13:00:00Z,30.6671,-87.9365,4.997,0.06,1111122 
DISL,ioos:station:DISL:MHPA:1,2009-06-03T13:30:00Z,30.6671,-87.9365,4.416,0.06,1111122 
DISL,ioos:station:DISL:MHPA:1,2009-06-03T14:00:00Z,30.6671,-87.9365,4.0,0.06,1111122 
DISL,ioos:station:DISL:MHPA:1,2009-06-03T14:30:00Z,30.6671,-87.9365,4.011,0.06,1111122 
DISL,ioos:station:DISL:MHPA:1,2009-06-03T15:00:00Z,30.6671,-87.9365,4.016,0.06,1111122 
DISL,ioos:station:DISL:MHPA:1,2009-06-03T15:30:00Z,30.6671,-87.9365,4.036,0.07,1111122 
DISL,ioos:station:DISL:MHPA:1,2009-06-03T16:00:00Z,30.6671,-87.9365,3.972,0.07,1111122 
DISL,ioos:station:DISL:MHPA:1,2009-06-03T16:30:00Z,30.6671,-87.9365,3.811,0.07,1111122 
DISL,ioos:station:DISL:MHPA:1,2009-06-03T17:00:00Z,30.6671,-87.9365,3.801,0.06,1111122 
DISL,ioos:station:DISL:MHPA:1,2009-06-03T17:30:00Z,30.6671,-87.9365,3.727,0.06,1111122 
DISL,ioos:station:DISL:MHPA:1,2009-06-03T18:00:00Z,30.6671,-87.9365,3.753,0.06,1111122 
DISL,ioos:station:DISL:MHPA:1,2009-06-03T18:30:00Z,30.6671,-87.9365,3.65,0.06,1111122 
DISL,ioos:station:DISL:MHPA:1,2009-06-03T19:00:00Z,30.6671,-87.9365,3.529,0.07,1111122 
DISL,ioos:station:DISL:MHPA:1,2009-06-03T19:30:00Z,30.6671,-87.9365,3.497,0.07,1111122 
DISL,ioos:station:DISL:MHPA:1,2009-06-03T20:00:00Z,30.6671,-87.9365,3.355,0.06,1111122 
DISL,ioos:station:DISL:MHPA:1,2009-06-03T20:30:00Z,30.6671,-87.9365,3.254,0.07,1111122 
DISL,ioos:station:DISL:MHPA:1,2009-06-03T21:00:00Z,30.6671,-87.9365,3.189,0.06,1111122 
DISL,ioos:station:DISL:MHPA:1,2009-06-03T21:30:00Z,30.6671,-87.9365,3.138,0.07,1111122 
DISL,ioos:station:DISL:MHPA:1,2009-06-03T22:00:00Z,30.6671,-87.9365,3.16,0.07,1111122 
DISL,ioos:station:DISL:MHPA:1,2009-06-03T22:30:00Z,30.6671,-87.9365,3.319,0.07,1111122 
DISL,ioos:station:DISL:MHPA:1,2009-06-03T23:00:00Z,30.6671,-87.9365,3.2,0.07,1111122 
DISL,ioos:station:DISL:MHPA:1,2009-06-03T23:30:00Z,30.6671,-87.9365,3.126,0.07,1111122 
DISL,ioos:station:DISL:MHPA:1,2009-06-04T00:00:00Z,30.6671,-87.9365,3.086,0.07,1111122 
DISL,ioos:station:DISL:MHPA:1,2009-06-04T00:30:00Z,30.6671,-87.9365,3.018,0.07,1111122 
DISL,ioos:station:DISL:MHPA:1,2009-06-04T01:00:00Z,30.6671,-87.9365,2.963,0.07,1111122 
DISL,ioos:station:DISL:MHPA:1,2009-06-04T01:30:00Z,30.6671,-87.9365,3.033,0.07,1111122 
DISL,ioos:station:DISL:MHPA:1,2009-06-04T02:00:00Z,30.6671,-87.9365,3.042,0.07,1111122 
DISL,ioos:station:DISL:MHPA:1,2009-06-04T02:30:00Z,30.6671,-87.9365,3.016,0.07,1111122 
DISL,ioos:station:DISL:MHPA:1,2009-06-04T03:00:00Z,30.6671,-87.9365,3.053,0.06,1111122 
DISL,ioos:station:DISL:MHPA:1,2009-06-04T03:30:00Z,30.6671,-87.9365,3.3,0.07,1111122 
DISL,ioos:station:DISL:MHPA:1,2009-06-04T04:00:00Z,30.6671,-87.9365,3.451,0.07,1111122 
DISL,ioos:station:DISL:MHPA:1,2009-06-04T04:30:00Z,30.6671,-87.9365,3.441,0.06,1111122 
DISL,ioos:station:DISL:MHPA:1,2009-06-04T05:00:00Z,30.6671,-87.9365,3.535,0.07,1111122 
DISL,ioos:station:DISL:MHPA:1,2009-06-04T05:30:00Z,30.6671,-87.9365,3.775,0.07,1111122 
DISL,ioos:station:DISL:MHPA:1,2009-06-04T06:00:00Z,30.6671,-87.9365,3.824,0.07,1111122 
DISL,ioos:station:DISL:MHPA:1,2009-06-04T06:30:00Z,30.6671,-87.9365,3.882,0.07,1111122 
DISL,ioos:station:DISL:MHPA:1,2009-06-04T07:00:00Z,30.6671,-87.9365,4.37,0.07,1111122 
DISL,ioos:station:DISL:MHPA:1,2009-06-04T07:30:00Z,30.6671,-87.9365,4.237,0.07,1111122 
DISL,ioos:station:DISL:MHPA:1,2009-06-04T08:00:00Z,30.6671,-87.9365,4.082,0.07,1111122 
DISL,ioos:station:DISL:MHPA:1,2009-06-04T08:30:00Z,30.6671,-87.9365,4.105,0.07,1111122 
DISL,ioos:station:DISL:MHPA:1,2009-06-04T09:00:00Z,30.6671,-87.9365,4.391,0.07,1111122 
DISL,ioos:station:DISL:MHPA:1,2009-06-04T09:30:00Z,30.6671,-87.9365,4.267,0.07,1111122 
DISL,ioos:station:DISL:MHPA:1,2009-06-04T10:00:00Z,30.6671,-87.9365,4.283,0.07,1111122 
DISL,ioos:station:DISL:MHPA:1,2009-06-04T10:30:00Z,30.6671,-87.9365,4.318,0.07,1111122 
DISL,ioos:station:DISL:MHPA:1,2009-06-04T11:00:00Z,30.6671,-87.9365,4.395,0.07,1111122 
DISL,ioos:station:DISL:MHPA:1,2009-06-04T11:30:00Z,30.6671,-87.9365,4.384,0.07,1111122 
DISL,ioos:station:DISL:MHPA:1,2009-06-04T12:00:00Z,30.6671,-87.9365,4.436,0.07,1111122 
DISL,ioos:station:DISL:MHPA:1,2009-06-04T12:30:00Z,30.6671,-87.9365,4.643,0.07,1111122 
DISL,ioos:station:DISL:MHPA:1,2009-06-04T13:00:00Z,30.6671,-87.9365,4.696,0.07,1111122 
DISL,ioos:station:DISL:MHPA:1,2009-06-04T13:30:00Z,30.6671,-87.9365,4.74,0.07,1111122 
DISL,ioos:station:DISL:MHPA:1,2009-06-04T14:00:00Z,30.6671,-87.9365,4.691,0.07,1111122 
DISL,ioos:station:DISL:MHPA:1,2009-06-04T14:30:00Z,30.6671,-87.9365,4.689,0.07,1111122 
DISL,ioos:station:DISL:MHPA:1,2009-06-04T15:00:00Z,30.6671,-87.9365,4.663,0.07,1111122 
DISL,ioos:station:DISL:MHPA:1,2009-06-04T15:30:00Z,30.6671,-87.9365,4.64,0.07,1111122 
DISL,ioos:station:DISL:MHPA:1,2009-06-04T16:00:00Z,30.6671,-87.9365,4.615,0.07,1111122 
DISL,ioos:station:DISL:MHPA:1,2009-06-04T16:30:00Z,30.6671,-87.9365,4.497,0.07,1111122 
DISL,ioos:station:DISL:MHPA:1,2009-06-04T17:00:00Z,30.6671,-87.9365,4.412,0.07,1111122 
DISL,ioos:station:DISL:MHPA:1,2009-06-04T17:30:00Z,30.6671,-87.9365,4.467,0.07,1111122 
DISL,ioos:station:DISL:MHPA:1,2009-06-04T18:00:00Z,30.6671,-87.9365,4.349,0.07,1111122 
DISL,ioos:station:DISL:MHPA:1,2009-06-04T18:30:00Z,30.6671,-87.9365,4.236,0.07,1111122 
DISL,ioos:station:DISL:MHPA:1,2009-06-04T19:00:00Z,30.6671,-87.9365,4.387,0.07,1111122 
DISL,ioos:station:DISL:MHPA:1,2009-06-04T19:30:00Z,30.6671,-87.9365,4.148,0.07,1111122 
DISL,ioos:station:DISL:MHPA:1,2009-06-04T20:00:00Z,30.6671,-87.9365,3.911,0.07,1111122 
DISL,ioos:station:DISL:MHPA:1,2009-06-04T20:30:00Z,30.6671,-87.9365,3.862,0.07,1111122 
DISL,ioos:station:DISL:MHPA:1,2009-06-04T21:00:00Z,30.6671,-87.9365,3.722,0.07,1111122 
DISL,ioos:station:DISL:MHPA:1,2009-06-04T21:30:00Z,30.6671,-87.9365,3.757,0.07,1111122 
DISL,ioos:station:DISL:MHPA:1,2009-06-04T22:00:00Z,30.6671,-87.9365,3.811,0.07,1111122 
DISL,ioos:station:DISL:MHPA:1,2009-06-04T22:30:00Z,30.6671,-87.9365,3.604,0.07,1111122 
DISL,ioos:station:DISL:MHPA:1,2009-06-04T23:00:00Z,30.6671,-87.9365,3.374,0.07,1111122 
DISL,ioos:station:DISL:MHPA:1,2009-06-04T23:30:00Z,30.6671,-87.9365,3.265,0.07,1111122 
DISL,ioos:station:DISL:MHPA:1,2009-06-05T00:00:00Z,30.6671,-87.9365,3.256,0.07,1111122 
DISL,ioos:station:DISL:MHPA:1,2009-06-05T00:30:00Z,30.6671,-87.9365,3.227,0.07,1111122 
DISL,ioos:station:DISL:MHPA:1,2009-06-05T01:00:00Z,30.6671,-87.9365,3.164,0.07,1111122 
DISL,ioos:station:DISL:MHPA:1,2009-06-05T01:30:00Z,30.6671,-87.9365,3.167,0.07,1111122 
DISL,ioos:station:DISL:MHPA:1,2009-06-05T02:00:00Z,30.6671,-87.9365,3.204,0.07,1111122 
DISL,ioos:station:DISL:MHPA:1,2009-06-05T02:30:00Z,30.6671,-87.9365,3.058,0.07,1111122 
DISL,ioos:station:DISL:MHPA:1,2009-06-05T03:00:00Z,30.6671,-87.9365,2.986,0.07,1111122 
DISL,ioos:station:DISL:MHPA:1,2009-06-05T03:30:00Z,30.6671,-87.9365,3.029,0.07,1111122 
DISL,ioos:station:DISL:MHPA:1,2009-06-05T04:00:00Z,30.6671,-87.9365,3.019,0.07,1111122 
DISL,ioos:station:DISL:MHPA:1,2009-06-05T04:30:00Z,30.6671,-87.9365,2.995,0.07,1111122 
DISL,ioos:station:DISL:MHPA:1,2009-06-05T05:00:00Z,30.6671,-87.9365,3.064,0.07,1111122 
DISL,ioos:station:DISL:MHPA:1,2009-06-05T05:30:00Z,30.6671,-87.9365,3.272,0.07,1111122 
DISL,ioos:station:DISL:MHPA:1,2009-06-05T06:00:00Z,30.6671,-87.9365,3.323,0.07,1111122 
DISL,ioos:station:DISL:MHPA:1,2009-06-05T06:30:00Z,30.6671,-87.9365,3.248,0.07,1111122 
DISL,ioos:station:DISL:MHPA:1,2009-06-05T07:00:00Z,30.6671,-87.9365,3.44,0.07,1111122 
DISL,ioos:station:DISL:MHPA:1,2009-06-05T07:30:00Z,30.6671,-87.9365,3.47,0.07,1111122 
DISL,ioos:station:DISL:MHPA:1,2009-06-05T08:00:00Z,30.6671,-87.9365,3.525,0.07,1111122 
DISL,ioos:station:DISL:MHPA:1,2009-06-05T08:30:00Z,30.6671,-87.9365,3.54,0.07,1111122 
DISL,ioos:station:DISL:MHPA:1,2009-06-05T09:00:00Z,30.6671,-87.9365,3.573,0.07,1111122 
DISL,ioos:station:DISL:MHPA:1,2009-06-05T09:30:00Z,30.6671,-87.9365,3.692,0.07,1111122 
DISL,ioos:station:DISL:MHPA:1,2009-06-05T10:00:00Z,30.6671,-87.9365,3.739,0.07,1111122 
DISL,ioos:station:DISL:MHPA:1,2009-06-05T10:30:00Z,30.6671,-87.9365,3.886,0.07,1111122 
DISL,ioos:station:DISL:MHPA:1,2009-06-05T11:00:00Z,30.6671,-87.9365,3.837,0.07,1111122 
DISL,ioos:station:DISL:MHPA:1,2009-06-05T11:30:00Z,30.6671,-87.9365,3.828,0.07,1111122 
DISL,ioos:station:DISL:MHPA:1,2009-06-05T12:00:00Z,30.6671,-87.9365,3.892,0.07,1111122 
DISL,ioos:station:DISL:MHPA:1,2009-06-05T12:30:00Z,30.6671,-87.9365,4.019,0.07,1111122 
DISL,ioos:station:DISL:MHPA:1,2009-06-05T13:00:00Z,30.6671,-87.9365,4.163,0.07,1111122 
DISL,ioos:station:DISL:MHPA:1,2009-06-05T13:30:00Z,30.6671,-87.9365,4.186,0.07,1111122 
DISL,ioos:station:DISL:MHPA:1,2009-06-05T14:00:00Z,30.6671,-87.9365,4.19,0.07,1111122 
DISL,ioos:station:DISL:MHPA:1,2009-06-05T14:30:00Z,30.6671,-87.9365,4.236,0.07,1111122 
DISL,ioos:station:DISL:MHPA:1,2009-06-05T15:00:00Z,30.6671,-87.9365,4.241,0.07,1111122 
DISL,ioos:station:DISL:MHPA:1,2009-06-05T15:30:00Z,30.6671,-87.9365,4.275,0.07,1111122 
DISL,ioos:station:DISL:MHPA:1,2009-06-05T16:00:00Z,30.6671,-87.9365,4.221,0.07,1111122 
DISL,ioos:station:DISL:MHPA:1,2009-06-05T16:30:00Z,30.6671,-87.9365,4.178,0.07,1111122 
DISL,ioos:station:DISL:MHPA:1,2009-06-05T17:00:00Z,30.6671,-87.9365,4.204,0.07,1111122 
DISL,ioos:station:DISL:MHPA:1,2009-06-05T17:30:00Z,30.6671,-87.9365,4.154,0.07,1111122 
DISL,ioos:station:DISL:MHPA:1,2009-06-05T18:00:00Z,30.6671,-87.9365,4.071,0.07,1111122 
DISL,ioos:station:DISL:MHPA:1,2009-06-05T18:30:00Z,30.6671,-87.9365,3.927,0.07,1111122 
DISL,ioos:station:DISL:MHPA:1,2009-06-05T19:00:00Z,30.6671,-87.9365,3.834,0.07,1111122 
DISL,ioos:station:DISL:MHPA:1,2009-06-05T19:30:00Z,30.6671,-87.9365,3.729,0.07,1111122 
DISL,ioos:station:DISL:MHPA:1,2009-06-05T20:00:00Z,30.6671,-87.9365,3.594,0.07,1111122 
DISL,ioos:station:DISL:MHPA:1,2009-06-05T20:30:00Z,30.6671,-87.9365,3.456,0.07,1111122 
DISL,ioos:station:DISL:MHPA:1,2009-06-05T21:00:00Z,30.6671,-87.9365,3.312,0.07,1111122 
DISL,ioos:station:DISL:MHPA:1,2009-06-05T21:30:00Z,30.6671,-87.9365,3.169,0.07,1111122 
DISL,ioos:station:DISL:MHPA:1,2009-06-05T22:00:00Z,30.6671,-87.9365,3.025,0.07,1111122 
DISL,ioos:station:DISL:MHPA:1,2009-06-05T22:30:00Z,30.6671,-87.9365,2.876,0.07,1111122 
DISL,ioos:station:DISL:MHPA:1,2009-06-05T23:00:00Z,30.6671,-87.9365,2.714,0.07,1111122 
DISL,ioos:station:DISL:MHPA:1,2009-06-05T23:30:00Z,30.6671,-87.9365,2.571,0.07,1111122 
DISL,ioos:station:DISL:MHPA:1,2009-06-06T00:00:00Z,30.6671,-87.9365,2.44,0.07,1111122 
DISL,ioos:station:DISL:MHPA:1,2009-06-06T00:30:00Z,30.6671,-87.9365,2.331,0.07,1111122 
DISL,ioos:station:DISL:MHPA:1,2009-06-06T01:00:00Z,30.6671,-87.9365,2.244,0.07,1111122 
DISL,ioos:station:DISL:MHPA:1,2009-06-06T01:30:00Z,30.6671,-87.9365,2.186,0.07,1111122 
DISL,ioos:station:DISL:MHPA:1,2009-06-06T02:00:00Z,30.6671,-87.9365,2.155,0.07,1111122 
DISL,ioos:station:DISL:MHPA:1,2009-06-06T02:30:00Z,30.6671,-87.9365,2.15,0.07,1111122 
DISL,ioos:station:DISL:MHPA:1,2009-06-06T03:00:00Z,30.6671,-87.9365,2.189,0.07,1111122 
DISL,ioos:station:DISL:MHPA:1,2009-06-06T03:30:00Z,30.6671,-87.9365,2.301,0.07,1111122 
DISL,ioos:station:DISL:MHPA:1,2009-06-06T04:00:00Z,30.6671,-87.9365,2.347,0.07,1111122 
DISL,ioos:station:DISL:MHPA:1,2009-06-06T04:30:00Z,30.6671,-87.9365,2.278,0.07,1111122 
DISL,ioos:station:DISL:MHPA:1,2009-06-06T05:00:00Z,30.6671,-87.9365,2.289,0.07,1111122 
DISL,ioos:station:DISL:MHPA:1,2009-06-06T05:30:00Z,30.6671,-87.9365,2.411,0.07,1111122 
DISL,ioos:station:DISL:MHPA:1,2009-06-06T06:00:00Z,30.6671,-87.9365,2.515,0.07,1111122 
DISL,ioos:station:DISL:MHPA:1,2009-06-06T06:30:00Z,30.6671,-87.9365,2.676,0.07,1111122 
DISL,ioos:station:DISL:MHPA:1,2009-06-06T07:00:00Z,30.6671,-87.9365,2.879,0.07,1111122 
DISL,ioos:station:DISL:MHPA:1,2009-06-06T07:30:00Z,30.6671,-87.9365,3.027,0.07,1111122 
DISL,ioos:station:DISL:MHPA:1,2009-06-06T08:00:00Z,30.6671,-87.9365,3.206,0.08,1111122 
DISL,ioos:station:DISL:MHPA:1,2009-06-06T08:30:00Z,30.6671,-87.9365,3.366,0.08,1111122 
DISL,ioos:station:DISL:MHPA:1,2009-06-06T09:00:00Z,30.6671,-87.9365,3.478,0.08,1111122 
DISL,ioos:station:DISL:MHPA:1,2009-06-06T09:30:00Z,30.6671,-87.9365,3.533,0.08,1111122 
DISL,ioos:station:DISL:MHPA:1,2009-06-06T10:00:00Z,30.6671,-87.9365,3.645,0.08,1111122 
DISL,ioos:station:DISL:MHPA:1,2009-06-06T10:30:00Z,30.6671,-87.9365,3.79,0.08,1111122 
DISL,ioos:station:DISL:MHPA:1,2009-06-06T11:00:00Z,30.6671,-87.9365,3.801,0.08,1111122 
DISL,ioos:station:DISL:MHPA:1,2009-06-06T11:30:00Z,30.6671,-87.9365,3.962,0.08,1111122 
DISL,ioos:station:DISL:MHPA:1,2009-06-06T12:00:00Z,30.6671,-87.9365,4.094,0.08,1111122 
DISL,ioos:station:DISL:MHPA:1,2009-06-06T12:30:00Z,30.6671,-87.9365,4.221,0.08,1111122 
DISL,ioos:station:DISL:MHPA:1,2009-06-06T13:00:00Z,30.6671,-87.9365,4.294,0.08,1111122 
DISL,ioos:station:DISL:MHPA:1,2009-06-06T13:30:00Z,30.6671,-87.9365,4.381,0.08,1111122 
DISL,ioos:station:DISL:MHPA:1,2009-06-06T14:00:00Z,30.6671,-87.9365,4.465,0.08,1111122 
DISL,ioos:station:DISL:MHPA:1,2009-06-06T14:30:00Z,30.6671,-87.9365,4.499,0.08,1111122 
DISL,ioos:station:DISL:MHPA:1,2009-06-06T15:00:00Z,30.6671,-87.9365,4.543,0.08,1111122 
DISL,ioos:station:DISL:MHPA:1,2009-06-06T15:30:00Z,30.6671,-87.9365,4.58,0.08,1111122 